{"data":{"norad_id":87690,"epoch":"2026-09-14T23:25:21.626400Z","epoch_age_seconds":491577,"freshness":"STALE","line1":"1 87690U          26257.97594475  .00004199  00000+0  57424-3 0  9999","line2":"2 87690  65.7948 353.7944 0585680 267.4386  85.9557 14.03102741646103","mean_motion":14.03102741,"eccentricity":0.058568,"inclination_deg":65.7948,"raan_deg":353.7944,"arg_perigee_deg":267.4386,"mean_anomaly_deg":85.9557,"bstar":0.00057424,"rev_number":64610,"period_min":102.62969046541,"perigee_km":457.79628396929,"apogee_km":1308.3451086863,"semimajor_km":7261.2076963278,"source":"CELESTRAK","updated_at":"2026-09-20T09:00:32.478404Z"}}